Weather History for Atlantic City, NJ

Change the Weather History Date:

Sunday, March 24, 2013

  Actual Average Record
Temperature  
Mean Temperature 35 °F 44 °F  
Max Temperature 46 °F 54 °F 78 °F (1929)
Min Temperature 24 °F 35 °F 16 °F (1885)
Degree Days  
Heating Degree Days 30 20  
Month to date heating degree days 645 571  
Since 1 July heating degree days 4063 4162  
Cooling Degree Days 0 0  
Month to date cooling degree days 0 0  
Year to date cooling degree days 0 0  
Moisture  
Dew Point 20 °F    
Average Humidity 53    
Maximum Humidity 74    
Minimum Humidity 31    
Precipitation  
Precipitation 0.00 in 0.14 in 1.08 in (1912)
Month to date precipitation 3.29 3.22  
Year to date precipitation 10.75 9.31  
Snow  
Snow 0.00 in 0.00 in 2.40 in (1990)
Month to date snowfall 1.2 1.0  
Since 1 July snowfall 12.6 16.1  
Snow Depth 0.00 in    
Sea Level Pressure  
Sea Level Pressure 29.86 in    
Wind  
Wind Speed 6 mph (NE)    
Max Wind Speed 18 mph    
Max Gust Speed 23 mph    
Visibility 10 miles    
Events      
T = Trace of Precipitation, MM = Missing Value Source: NWS Daily Summary

Daily Weather History Graph

Daily Weather History Graph

Search for Another Location

Airport:

Trip Planner

Search our weather history database for the weather conditions in past years. The results will help you decide how hot, cold, wet, or windy it might be!

Date:

Astronomy

Mar. 24, 2013 Rise Set
Actual Time 6:54 AM EDT 7:14 PM EDT
Civil Twilight 6:28 AM EDT 7:41 PM EDT
Nautical Twilight 5:56 AM EDT 8:12 PM EDT
Astronomical Twilight 5:24 AM EDT 8:45 PM EDT
Moon 4:40 PM EDT (3/24) 5:03 AM EDT (3/24)
Length of Visible Light 13h 13m
Length of Day
12h 19m
Waxing Gibbous, 91% of the Moon is Illuminated
Mar 24
Waxing Gibbous
Mar 27
Full
Apr 3
Last Quarter
Apr 10
New
Apr 18
First Quarter

Hourly Weather History & Observations

Time (EDT) Temp. Windchill Dew Point Humidity Pressure Visibility Wind Dir Wind Speed Gust Speed Precip Events Conditions
12:54 AM 35.1 °F 31.0 °F 19.0 °F 52% 29.97 in 10.0 mi West 4.6 mph - N/A   Clear
1:54 AM 28.0 °F - 16.0 °F 61% 29.97 in 10.0 mi Calm Calm - N/A   Clear
2:54 AM 30.0 °F - 18.0 °F 61% 29.97 in 10.0 mi Calm Calm - N/A   Clear
3:54 AM 25.0 °F 20.7 °F 17.1 °F 72% 29.97 in 10.0 mi WNW 3.5 mph - N/A   Clear
4:54 AM 27.0 °F 20.5 °F 18.0 °F 69% 29.98 in 10.0 mi WNW 5.8 mph - N/A   Clear
5:54 AM 28.9 °F 23.9 °F 18.0 °F 64% 29.99 in 10.0 mi West 4.6 mph - N/A   Clear
6:54 AM 25.0 °F - 16.0 °F 69% 29.98 in 10.0 mi Calm Calm - N/A   Clear
7:54 AM 30.9 °F 27.5 °F 21.0 °F 67% 29.98 in 10.0 mi West 3.5 mph - N/A   Clear
8:54 AM 37.0 °F 31.0 °F 21.9 °F 54% 29.98 in 10.0 mi NW 8.1 mph - N/A   Clear
9:54 AM 39.9 °F 31.8 °F 18.0 °F 41% 29.94 in 10.0 mi NNW 15.0 mph 20.7 mph N/A   Clear
10:54 AM 42.1 °F 35.7 °F 17.1 °F 37% 29.91 in 10.0 mi NNW 11.5 mph - N/A   Clear
11:54 AM 43.0 °F 41.3 °F 16.0 °F 34% 29.89 in 10.0 mi Variable 3.5 mph - N/A   Clear
12:54 PM 44.1 °F 40.1 °F 16.0 °F 32% 29.86 in 10.0 mi NW 6.9 mph - N/A   Clear
1:54 PM 45.0 °F 43.5 °F 16.0 °F 31% 29.81 in 9.0 mi Variable 3.5 mph - N/A   Clear
2:54 PM 42.1 °F 35.2 °F 21.0 °F 43% 29.78 in 10.0 mi ESE 12.7 mph - N/A   Clear
3:54 PM 39.9 °F 33.9 °F 21.0 °F 47% 29.76 in 10.0 mi ESE 9.2 mph - N/A   Clear
4:54 PM 39.0 °F 32.8 °F 23.0 °F 53% 29.74 in 10.0 mi ESE 9.2 mph - N/A   Clear
5:54 PM 37.9 °F 32.1 °F 23.0 °F 55% 29.73 in 10.0 mi East 8.1 mph - N/A   Scattered Clouds
6:54 PM 37.9 °F 34.4 °F 23.0 °F 55% 29.75 in 10.0 mi East 4.6 mph - N/A   Overcast
7:54 PM 37.0 °F 33.3 °F 25.0 °F 62% 29.76 in 10.0 mi ESE 4.6 mph - N/A   Overcast
8:54 PM 37.0 °F 33.3 °F 25.0 °F 62% 29.78 in 10.0 mi SE 4.6 mph - N/A   Overcast
9:54 PM 37.0 °F 33.3 °F 26.1 °F 65% 29.76 in 10.0 mi East 4.6 mph - N/A   Overcast
10:54 PM 37.0 °F 33.3 °F 27.0 °F 67% 29.73 in 10.0 mi NE 4.6 mph - N/A   Overcast
11:54 PM 37.0 °F 31.0 °F 27.0 °F 67% 29.67 in 10.0 mi East 8.1 mph - N/A   Overcast